2024/01/17 00:00:00, 0.2,-1.8
2024/01/17 00:10:00, 0.2,-1.9
2024/01/17 00:20:00, 0.2,-2.1
2024/01/17 00:30:00, 0.2,-1.7
2024/01/17 00:40:00, 0.2,-2.4
2024/01/17 00:50:00, 0.2,-2.0
2024/01/17 01:00:00, 0.2,-2.4
2024/01/17 01:10:00, 0.2,-2.4
2024/01/17 01:20:00, 0.2,-2.8
2024/01/17 01:30:00, 0.2,-3.0
2024/01/17 01:40:00, 0.2,-3.0
2024/01/17 01:50:00, 0.2,-3.3
2024/01/17 02:00:00, 0.2,-3.3
2024/01/17 02:10:00, 0.3,-3.3
2024/01/17 02:20:00, 0.3,-3.3
2024/01/17 02:30:00, 0.3,-3.4
2024/01/17 02:40:00, 0.2,-3.4
2024/01/17 02:50:00, 0.2,-3.4
2024/01/17 03:00:00, 0.1,-3.7
2024/01/17 03:10:00, 0.3,-3.6
2024/01/17 03:20:00, 0.3,-3.5
2024/01/17 03:30:00, 0.3,-3.1
2024/01/17 03:40:00, 0.3,-3.7
2024/01/17 03:50:00, 0.3,-3.8
2024/01/17 04:00:00, 0.2,-3.7
2024/01/17 04:10:00, 0.3,-3.7
2024/01/17 04:20:00, 0.3,-4.1
2024/01/17 04:30:00, 0.3,-4.0
2024/01/17 04:40:00, 0.3,-4.0
2024/01/17 04:50:00, 0.3,-4.1
2024/01/17 05:00:00, 0.3,-4.2
2024/01/17 05:10:00, 0.3,-4.1
2024/01/17 05:20:00, 0.3,-4.2
2024/01/17 05:30:00, 0.3,-4.1
2024/01/17 05:40:00, 0.3,-4.3
2024/01/17 05:50:00, 0.4,-4.3
2024/01/17 06:00:00, 0.4,-4.3
2024/01/17 06:10:00, 0.4,-4.5
2024/01/17 06:20:00, 0.4,-4.6
2024/01/17 06:30:00, 0.4,-4.5
2024/01/17 06:40:00, 0.4,-4.6
2024/01/17 06:50:00, 0.4,-4.8
2024/01/17 07:00:00, 0.4,-4.6
2024/01/17 07:10:00, 0.4,-4.5
2024/01/17 07:20:00, 0.4,-4.6
2024/01/17 07:30:00, 0.4,-4.6
2024/01/17 07:40:00, 0.4,-4.4
2024/01/17 07:50:00, 0.4,-4.4
2024/01/17 08:00:00, 0.5,-4.1
2024/01/17 08:10:00, 0.4,-3.9
2024/01/17 08:20:00, 0.5,-3.8
2024/01/17 08:30:00, 0.5,-3.6
2024/01/17 08:40:00, 0.5,-3.4
2024/01/17 08:50:00, 0.5,-3.2
2024/01/17 09:00:00, 0.5,-3.0
2024/01/17 09:10:00, 0.5,-2.7
2024/01/17 09:20:00, 0.5,-2.2
2024/01/17 09:30:00, 0.5,-1.2
2024/01/17 09:40:00, 0.5,-0.2
2024/01/17 09:50:00, 0.5, 0.1
2024/01/17 10:00:00, 0.5, 0.9
2024/01/17 10:10:00, 0.4, 1.8
2024/01/17 10:20:00, 0.3, 2.5
2024/01/17 10:30:00, 0.3, 3.0
2024/01/17 10:40:00, 0.3, 3.9
2024/01/17 10:50:00, 0.2, 4.6
2024/01/17 11:00:00, 0.3, 5.3
2024/01/17 11:10:00, 0.2, 6.5
2024/01/17 11:20:00, 0.1, 7.1
2024/01/17 11:30:00, 0.2, 8.0
2024/01/17 11:40:00, 0.1, 8.5
2024/01/17 11:50:00, 0.0, 9.2
2024/01/17 12:00:00, 0.0,10.3
2024/01/17 12:10:00, 0.0,11.3
2024/01/17 12:20:00, 0.1,11.9
2024/01/17 12:30:00, 0.0,12.4
2024/01/17 12:40:00, 0.0,13.1
2024/01/17 12:50:00, 0.0,13.9
2024/01/17 13:00:00, 0.0,13.5
2024/01/17 13:10:00, 0.0,13.7
2024/01/17 13:20:00, 0.0,14.1
2024/01/17 13:30:00, 0.0,14.9
2024/01/17 13:40:00, 0.0,13.2
2024/01/17 13:50:00, 0.0,11.9
2024/01/17 14:00:00, 0.0,12.0
2024/01/17 14:10:00, 0.1,12.9
2024/01/17 14:20:00, 0.0,11.1
2024/01/17 14:30:00, 0.0,11.1
2024/01/17 14:40:00, 0.0,10.9
2024/01/17 14:50:00, 0.0,10.6
2024/01/17 15:00:00, 0.0, 9.9
2024/01/17 15:10:00, 0.0, 9.4
2024/01/17 15:20:00, 0.0, 9.3
2024/01/17 15:30:00, 0.0, 8.8
2024/01/17 15:40:00, 0.0, 8.4
2024/01/17 15:50:00, 0.0, 8.0
2024/01/17 16:00:00, 0.0, 7.9
2024/01/17 16:10:00, 0.0, 7.5
2024/01/17 16:20:00, 0.0, 7.5
2024/01/17 16:30:00, 0.0, 6.9
2024/01/17 16:40:00, 0.0, 6.8
2024/01/17 16:50:00, 0.0, 6.4
2024/01/17 17:00:00, 0.0, 6.1
2024/01/17 17:10:00, 0.0, 6.0
2024/01/17 17:20:00, 0.0, 5.7
2024/01/17 17:30:00, 0.0, 5.3
2024/01/17 17:40:00, 0.0, 5.3
2024/01/17 17:50:00, 0.0, 5.2
2024/01/17 18:00:00, 0.0, 4.9
2024/01/17 18:10:00, 0.0, 4.9
2024/01/17 18:20:00, 0.0, 5.0
2024/01/17 18:30:00, 0.0, 5.1
2024/01/17 18:40:00, 0.0, 4.7
2024/01/17 18:50:00, 0.0, 4.7
2024/01/17 19:00:00, 0.0, 4.7
2024/01/17 19:10:00, 0.0, 4.8
2024/01/17 19:20:00, 0.0, 4.7
2024/01/17 19:30:00, 0.0, 4.8
2024/01/17 19:40:00, 0.0, 4.6
2024/01/17 19:50:00, 0.0, 4.7
2024/01/17 20:00:00, 0.0, 4.4
2024/01/17 20:10:00, 0.0, 4.6
2024/01/17 20:20:00, 0.0, 4.7
2024/01/17 20:30:00, 0.0, 4.5
2024/01/17 20:40:00, 0.0, 4.7
2024/01/17 20:50:00, 0.0, 4.6
2024/01/17 21:00:00, 0.0, 4.6
2024/01/17 21:10:00, 0.0, 4.4
2024/01/17 21:20:00, 0.0, 4.6
2024/01/17 21:30:00, 0.0, 4.5
2024/01/17 21:40:00, 0.0, 4.6
2024/01/17 21:50:00, 0.0, 4.5
2024/01/17 22:00:00, 0.1, 4.5
2024/01/17 22:10:00, 0.0, 4.6
2024/01/17 22:20:00, 0.0, 4.5
2024/01/17 22:30:00, 0.0, 4.1
2024/01/17 22:40:00, 0.0, 4.3
2024/01/17 22:50:00, 0.0, 4.4
2024/01/17 23:00:00, 0.0, 4.2
2024/01/17 23:10:00, 0.0, 4.4
2024/01/17 23:20:00, 0.0, 4.3
2024/01/17 23:30:00, 0.0, 4.2
2024/01/17 23:40:00, 0.0, 4.3
2024/01/17 23:50:00, 0.0, 4.2
